Meteo pe oră la

Astăzi, 23 Ianuarie, Sâmbătă

Timp Temperatura Precipitaţii Vânt Presiune Umiditate
00:00 +19°C° 0 mm 1 m/s 625 mmHg 59%
01:00 +18°C° 0 mm 1 m/s 625 mmHg 60%
02:00 +18°C° 0 mm 1 m/s 625 mmHg 60%
03:00 +18°C° 0 mm 1 m/s 625 mmHg 61%
04:00 +18°C° 0 mm 1 m/s 625 mmHg 61%
05:00 +16°C° 0 mm 1 m/s 625 mmHg 61%
06:00 +19°C° 0 mm 1 m/s 626 mmHg 58%
07:00 +21°C° 0 mm 1 m/s 627 mmHg 54%
08:00 +20°C° 0 mm 0 m/s 627 mmHg 50%
09:00 +24°C° 0 mm 1 m/s 628 mmHg 45%
10:00 +26°C° 0 mm 1 m/s 628 mmHg 40%
11:00 +27°C° 0 mm 2 m/s 628 mmHg 35%
12:00 +28°C° 0 mm 2 m/s 627 mmHg 35%
13:00 +28°C° 0 mm 2 m/s 627 mmHg 34%
14:00 +28°C° 0 mm 2 m/s 626 mmHg 33%
15:00 +27°C° 0 mm 2 m/s 625 mmHg 39%
16:00 +25°C° 0 mm 1 m/s 625 mmHg 44%
17:00 +23°C° 0 mm 1 m/s 624 mmHg 49%
18:00 +22°C° 0 mm 1 m/s 624 mmHg 52%
19:00 +21°C° 0 mm 1 m/s 625 mmHg 54%
20:00 +20°C° 0 mm 1 m/s 625 mmHg 57%
21:00 +19°C° 0 mm 1 m/s 625 mmHg 57%
22:00 +19°C° 0 mm 1 m/s 625 mmHg 57%
23:00 +19°C° 0 mm 1 m/s 625 mmHg 57%

Mâine, 24 Ianuarie, Duminică

Timp Temperatura Precipitaţii Vânt Presiune Umiditate
00:00 +19°C° 0 mm 1 m/s 625 mmHg 58%
01:00 +19°C° 0 mm 1 m/s 625 mmHg 58%
02:00 +18°C° 0 mm 1 m/s 624 mmHg 58%
03:00 +18°C° 0 mm 1 m/s 624 mmHg 58%
04:00 +18°C° 0 mm 1 m/s 624 mmHg 59%
05:00 +18°C° 0 mm 1 m/s 624 mmHg 60%
06:00 +19°C° 0 mm 1 m/s 625 mmHg 56%
07:00 +18°C° 0 mm 0 m/s 626 mmHg 53%
08:00 +20°C° 0 mm 0 m/s 627 mmHg 50%
09:00 +24°C° 0 mm 1 m/s 627 mmHg 45%
10:00 +25°C° 0 mm 1 m/s 627 mmHg 40%
11:00 +27°C° 0 mm 2 m/s 628 mmHg 36%
12:00 +27°C° 0 mm 2 m/s 627 mmHg 35%
13:00 +28°C° 0 mm 3 m/s 626 mmHg 34%
14:00 +28°C° 0 mm 3 m/s 625 mmHg 33%
15:00 +26°C° 0 mm 2 m/s 625 mmHg 37%
16:00 +25°C° 0 mm 2 m/s 625 mmHg 41%
17:00 +23°C° 0 mm 1 m/s 624 mmHg 45%
18:00 +22°C° 0 mm 1 m/s 624 mmHg 49%
19:00 +20°C° 0 mm 1 m/s 624 mmHg 52%
20:00 +19°C° 0 mm 1 m/s 624 mmHg 55%
21:00 +18°C° 0 mm 1 m/s 624 mmHg 55%
22:00 +18°C° 0 mm 1 m/s 624 mmHg 56%
23:00 +16°C° 0 mm 1 m/s 624 mmHg 57%

Poimâine, 25 Ianuarie, Luni

Timp Temperatura Precipitaţii Vânt Presiune Umiditate
00:00 +16°C° 0 mm 1 m/s 624 mmHg 58%
01:00 +16°C° 0 mm 1 m/s 624 mmHg 59%
02:00 +16°C° 0 mm 1 m/s 624 mmHg 60%
03:00 +15°C° 0 mm 1 m/s 624 mmHg 61%
04:00 +15°C° 0 mm 1 m/s 624 mmHg 62%
05:00 +15°C° 0 mm 1 m/s 624 mmHg 63%
06:00 +18°C° 0 mm 1 m/s 625 mmHg 58%
07:00 +17°C° 0 mm 0 m/s 626 mmHg 53%
08:00 +19°C° 0 mm 0 m/s 627 mmHg 47%
09:00 +23°C° 0 mm 1 m/s 627 mmHg 43%
10:00 +25°C° 0 mm 1 m/s 627 mmHg 38%
11:00 +26°C° 0 mm 2 m/s 627 mmHg 34%
12:00 +27°C° 0 mm 2 m/s 627 mmHg 33%
13:00 +27°C° 0 mm 3 m/s 626 mmHg 33%
14:00 +27°C° 0 mm 3 m/s 625 mmHg 33%
15:00 +25°C° 0 mm 2 m/s 625 mmHg 37%
16:00 +24°C° 0 mm 2 m/s 624 mmHg 42%
17:00 +23°C° 0 mm 1 m/s 624 mmHg 47%
18:00 +21°C° 0 mm 1 m/s 624 mmHg 50%
19:00 +20°C° 0 mm 1 m/s 624 mmHg 54%
20:00 +18°C° 0 mm 1 m/s 624 mmHg 57%
21:00 +18°C° 0 mm 1 m/s 624 mmHg 58%
22:00 +18°C° 0 mm 1 m/s 624 mmHg 59%
23:00 +16°C° 0 mm 1 m/s 625 mmHg 60%

26 Ianuarie, Marţi

Timp Temperatura Precipitaţii Vânt Presiune Umiditate
00:00 +16°C° 0 mm 1 m/s 624 mmHg 61%
01:00 +16°C° 0 mm 1 m/s 624 mmHg 63%
02:00 +15°C° 0 mm 1 m/s 624 mmHg 64%
03:00 +15°C° 0 mm 1 m/s 624 mmHg 65%
04:00 +15°C° 0 mm 1 m/s 624 mmHg 65%
05:00 +15°C° 0 mm 1 m/s 624 mmHg 66%
06:00 +16°C° 0 mm 1 m/s 625 mmHg 60%
07:00 +17°C° 0 mm 0 m/s 626 mmHg 54%
08:00 +19°C° 0 mm 0 m/s 627 mmHg 48%
09:00 +23°C° 0 mm 1 m/s 627 mmHg 43%
10:00 +24°C° 0 mm 1 m/s 627 mmHg 38%
11:00 +26°C° 0 mm 2 m/s 627 mmHg 34%
12:00 +27°C° 0 mm 2 m/s 627 mmHg 33%
13:00 +27°C° 0 mm 2 m/s 626 mmHg 32%
14:00 +27°C° 0 mm 3 m/s 625 mmHg 32%
15:00 +26°C° 0 mm 2 m/s 625 mmHg 36%
16:00 +24°C° 0 mm 2 m/s 624 mmHg 40%
17:00 +23°C° 0 mm 1 m/s 624 mmHg 45%
18:00 +21°C° 0 mm 1 m/s 624 mmHg 48%
19:00 +20°C° 0 mm 1 m/s 624 mmHg 51%
20:00 +17°C° 0 mm 2 m/s 625 mmHg 55%
21:00 +18°C° 0 mm 1 m/s 625 mmHg 54%
22:00 +16°C° 0 mm 1 m/s 625 mmHg 54%
23:00 +16°C° 0 mm 1 m/s 625 mmHg 54%

27 Ianuarie, Miercuri

Timp Temperatura Precipitaţii Vânt Presiune Umiditate
00:00 +16°C° 0 mm 1 m/s 625 mmHg 54%
01:00 +16°C° 0 mm 1 m/s 624 mmHg 53%
02:00 +15°C° 0 mm 1 m/s 624 mmHg 53%
03:00 +15°C° 0 mm 1 m/s 624 mmHg 52%
04:00 +15°C° 0 mm 2 m/s 625 mmHg 52%
05:00 +15°C° 0 mm 2 m/s 625 mmHg 51%
06:00 +18°C° 0 mm 1 m/s 626 mmHg 47%
07:00 +20°C° 0 mm 1 m/s 627 mmHg 43%
08:00 +20°C° 0 mm 0 m/s 628 mmHg 39%
09:00 +24°C° 0 mm 1 m/s 628 mmHg 36%
10:00 +26°C° 0 mm 1 m/s 628 mmHg 33%
11:00 +28°C° 0 mm 2 m/s 629 mmHg 29%
12:00 +28°C° 0 mm 2 m/s 628 mmHg 29%
13:00 +28°C° 0 mm 2 m/s 627 mmHg 29%
14:00 +29°C° 0 mm 2 m/s 626 mmHg 29%
15:00 +27°C° 0 mm 2 m/s 626 mmHg 34%
16:00 +25°C° 0 mm 2 m/s 625 mmHg 38%
17:00 +24°C° 0 mm 1 m/s 625 mmHg 42%
18:00 +22°C° 0 mm 1 m/s 625 mmHg 46%
19:00 +21°C° 0 mm 1 m/s 625 mmHg 50%
20:00 +18°C° 0 mm 2 m/s 626 mmHg 54%
21:00 +18°C° 0 mm 2 m/s 626 mmHg 55%
22:00 +18°C° 0 mm 2 m/s 626 mmHg 56%
23:00 +18°C° 0 mm 2 m/s 626 mmHg 57%

28 Ianuarie, Joi

Timp Temperatura Precipitaţii Vânt Presiune Umiditate
00:00 +18°C° 0 mm 1 m/s 626 mmHg 59%
01:00 +18°C° 0 mm 1 m/s 626 mmHg 60%
02:00 +18°C° 0 mm 1 m/s 626 mmHg 62%
03:00 +18°C° 0 mm 1 m/s 626 mmHg 65%
04:00 +16°C° 0 mm 1 m/s 626 mmHg 67%
05:00 +16°C° 0 mm 1 m/s 626 mmHg 70%
06:00 +18°C° 0 mm 1 m/s 627 mmHg 65%
07:00 +20°C° 0 mm 1 m/s 628 mmHg 60%
08:00 +20°C° 0 mm 0 m/s 629 mmHg 55%
09:00 +24°C° 0 mm 1 m/s 629 mmHg 49%
10:00 +26°C° 0 mm 1 m/s 629 mmHg 44%
11:00 +28°C° 0 mm 2 m/s 630 mmHg 38%
Arată mai mult

Formular de consimțământ

Meteoprog și furnizorii noștri de servicii pot stoca și accesa date personale, precum cookies, identificatori de dispozitiv sau alte tehnologii similare pe dispozitivul dumneavoastră și procesa astfel de date pentru a personaliza conținutul și reclamele, dar și pentru a oferi caracteristici de social media și pentru a analiza traficul.

  • Stocarea și/sau accesarea informațiilor pe dispozitivul dumneavoastră

    Cookies, identificatori de dispozitiv sau alte informații pot fi stocate sau accesate pe dispozitiv în scopurile indicate mai sus.

  • Reclame și conținut personalizat, evaluarea reclamelor și a conținutului, informații despre audiențe și dezvoltarea produselor

    Reclamele și conținutul pot fi personalizate pe baza unui profil. Pot fi adăugate date suplimentare pentru a personaliza mai bine reclamele și conținutul. Performanța reclamelor și conținutului poate fi măsurată. Pot fi obținute informații despre utilizatorii care au văzut reclamele și conținutul. Aceste date pot fi utilizate pentru a dezvolta sau îmbunătăți experiența utilizatorilor, sistemele și software-ul.

Dând clic pe ‘Sunt de acord’, permiteți utilizarea cookie-urilor menționate, a identificatorilor de dispozitiv, balizelor web sau altor tehnologii similare. Setările pot fi modificate din browser-ul dispozitivului dumneavoastră.

În anumite scopuri, interesele legitime pot prima asupra consimțământului. Puteți citi mai multe informații în acest sens în Politica privind Confidențialitatea Datelor și Cookie.